[[{"header":{"parameterUnit":"m.s-1","parameterCategory":1,"la1":30.2991,"la2":30.254,"lo1":-89.0895,"lo2":-89.0444,"dy":0.0017,"dx":0.0017,"nx":28,"ny":28,"refTime":"2024-02-05T09:00:00:Z","depth":0,"parameterNumber":2,"parameterNumberName":"U-component_of_WINDS"},"data":[0,0,0,0,0,0,0,0,0,0,0,0,0,0,0,0,0,0,0,0,0,0,0,0,0,0,0,0,0,0,0,0,0,0,0,0,0,0,0,0,0,0,0,0,0,0,0,0,0,0,0,0,0,0,0,0,0,0,-0.6246,-0.6247,0,-0.6322,-0.6323,-0.6324,-0.6348,-0.6347,-0.6347,-0.6347,-0.6424,-0.6426,-0.6428,0,0,0,0,0,0,0,0,0,0,0,0,0,-0.612,-0.6122,-0.6246,-0.6247,-0.6248,-0.6322,-0.6323,-0.6324,-0.6348,-0.6347,-0.6347,-0.6346,-0.6423,-0.6426,-0.6428,0,0,0,0,0,0,0,0,0,0,0,0,0,-0.6183,-0.6123,-0.6246,-0.6269,-0.6271,-0.6322,-0.6323,-0.6324,-0.6348,-0.6347,-0.6347,-0.6346,-0.6422,-0.6425,-0.6429,-0.6461,0,0,-0.644,-0.6441,0,0,0,0,0,0,0,0,-0.6179,-0.6188,-0.6264,-0.6267,-0.627,-0.6325,-0.6307,-0.637,-0.6348,-0.6319,-0.6347,-0.6346,-0.6391,-0.6397,-0.6413,-0.6465,-0.6468,-0.644,-0.6442,-0.6444,-0.6445,0,0,0,0,0,0,0,-0.6175,-0.6185,-0.6276,-0.6265,-0.6269,-0.6275,-0.6283,-0.6319,-0.6357,-0.6321,-0.6323,-0.6332,-0.6393,-0.6409,-0.6414,-0.6469,-0.644,-0.6443,-0.6445,-0.6447,-0.6552,-0.6553,0,0,0,0,0,0,-0.6167,-0.6181,-0.6273,-0.6278,-0.6223,-0.6277,-0.6287,-0.6308,-0.6357,-0.6364,-0.6332,-0.6333,-0.6403,-0.641,-0.6417,-0.6459,-0.6444,-0.6447,-0.6449,-0.6552,-0.6552,-0.6553,0,0,0,0,0,0,-0.6164,-0.6175,-0.627,-0.623,-0.6243,-0.628,-0.6304,-0.631,-0.6326,-0.6365,-0.6372,-0.6342,-0.6403,-0.6412,-0.645,-0.6462,-0.6449,-0.6452,-0.6551,-0.6552,-0.6553,-0.6542,0,0,0,0,0,0,-0.616,-0.6174,-0.6187,-0.623,-0.6245,-0.6302,-0.6304,-0.6311,-0.6332,-0.6334,-0.6376,-0.6383,-0.6403,-0.6445,-0.6454,-0.6466,-0.6455,-0.655,-0.6551,-0.6552,-0.6541,-0.6542,-0.6543,0,0,0,0,0,-0.6156,-0.6181,-0.6188,-0.6199,-0.6262,-0.6303,-0.6311,-0.6335,-0.6333,-0.6346,-0.6371,-0.6381,-0.6459,-0.6449,-0.6459,-0.6473,-0.6549,-0.6551,-0.6552,-0.6541,-0.6542,-0.6543,0,0,0,0,0,0,-0.6138,-0.6187,-0.6195,-0.6235,-0.6264,-0.6307,-0.6325,-0.6336,-0.6367,-0.6367,-0.6394,-0.6404,-0.644,-0.646,-0.6447,-0.6507,-0.6504,-0.6508,-0.6492,-0.6494,-0.6495,-0.6489,-0.6458,0,0,0,0,0,-0.6138,-0.6168,-0.6209,-0.624,-0.6255,-0.6287,-0.6306,-0.6322,-0.6354,-0.6366,-0.6394,-0.6424,-0.6456,-0.6476,-0.6507,-0.6544,-0.6554,-0.6559,-0.6559,-0.656,-0.6563,-0.6584,-0.6587,-0.6558,-0.6558,-0.6558,0,0,-0.614,-0.617,-0.6187,-0.6237,-0.6262,-0.6292,-0.6298,-0.6329,-0.6351,-0.6371,-0.6409,-0.643,-0.6466,-0.6503,-0.6522,-0.6522,-0.6573,-0.6562,-0.6562,-0.6565,-0.6586,-0.6589,-0.6591,-0.6559,-0.6559,-0.6559,0,0,-0.6158,-0.6184,-0.6213,-0.6238,-0.6276,-0.6297,-0.6304,-0.6345,-0.636,-0.6398,-0.6413,-0.644,-0.6493,-0.6518,-0.6538,-0.6564,-0.6575,-0.6574,-0.6579,-0.6599,-0.6601,-0.6603,-0.6613,-0.6616,-0.6576,-0.6576,-0.6576,0,-0.6155,-0.6201,-0.6226,-0.6257,-0.6278,-0.6297,-0.6326,-0.6349,-0.6395,-0.6409,-0.6408,-0.6476,-0.6501,-0.6545,-0.6551,-0.6567,-0.6575,-0.6569,-0.6599,-0.6601,-0.6604,-0.6613,-0.6617,-0.6576,-0.6576,-0.6576,-0.6576,0,-0.6196,-0.6227,-0.6246,-0.629,-0.6313,-0.6343,-0.6372,-0.6392,-0.6406,-0.6427,-0.6465,-0.6496,-0.6534,-0.6545,-0.6558,-0.6591,-0.659,-0.6593,-0.6592,-0.6606,-0.6615,-0.6619,-0.6576,-0.6576,-0.6576,-0.6576,0,0,-0.6206,-0.6263,-0.6269,-0.6289,-0.6332,-0.6357,-0.6387,-0.6424,-0.6441,-0.6472,-0.6498,-0.6542,-0.6546,-0.6568,-0.6584,-0.6602,-0.6621,-0.6603,-0.6605,-0.6606,-0.6658,-0.6655,-0.6659,-0.6628,-0.6628,-0.6629,-0.6655,0,-0.623,-0.6285,-0.6308,-0.6352,-0.6382,-0.64,-0.6426,-0.6455,-0.6475,-0.6503,-0.6525,-0.6556,-0.6559,-0.6572,-0.659,-0.6615,-0.6632,-0.6613,-0.6652,-0.6653,-0.6643,-0.6664,-0.6661,-0.6685,-0.6659,-0.666,-0.666,0,-0.6265,-0.6296,-0.6344,-0.6383,-0.6396,-0.642,-0.6455,-0.6481,-0.6514,-0.6527,-0.6552,-0.6567,-0.6599,-0.6595,-0.6639,-0.6625,-0.6642,-0.6656,-0.6658,-0.6663,-0.6658,-0.667,-0.6693,-0.6696,-0.6666,-0.6666,-0.6665,0,-0.6268,-0.6321,-0.6357,-0.6374,-0.642,-0.6436,-0.6456,-0.6488,-0.6509,-0.654,-0.6553,-0.6587,-0.6606,-0.6631,-0.6655,-0.665,-0.6696,-0.6694,-0.6708,-0.6708,-0.6718,-0.6717,-0.6744,-0.6728,-0.6728,-0.6728,-0.6728,0,-0.6292,-0.6321,-0.6359,-0.638,-0.6413,-0.6438,-0.6469,-0.649,-0.6519,-0.6545,-0.6562,-0.6586,-0.6616,-0.6643,-0.6662,-0.6695,-0.6703,-0.6715,-0.6719,-0.6714,-0.6712,-0.6725,-0.6724,-0.6729,-0.6729,-0.6729,-0.6728,0,-0.6301,-0.6327,-0.6367,-0.6408,-0.6419,-0.6441,-0.6475,-0.6497,-0.6518,-0.655,-0.6559,-0.6592,-0.6625,-0.6651,-0.6694,-0.6706,-0.6742,-0.6747,-0.6731,-0.6733,-0.6746,-0.6744,-0.6783,-0.6789,-0.6768,-0.6768,-0.6769,0,-0.6315,-0.6337,-0.638,-0.6399,-0.6419,-0.6449,-0.647,-0.6496,-0.6517,-0.6556,-0.6573,-0.6607,-0.6636,-0.6688,-0.6715,-0.6748,-0.6754,-0.6765,-0.6759,-0.6752,-0.6754,-0.6753,-0.6755,-0.6766,-0.6766,-0.6766,-0.6766,0,-0.6337,-0.6349,-0.6379,-0.6414,-0.6439,-0.6467,-0.6496,-0.651,-0.6541,-0.6563,-0.6598,-0.662,-0.6664,-0.6698,-0.6733,-0.6753,-0.6765,-0.6768,-0.6773,-0.6767,-0.6757,-0.6763,-0.6733,-0.6767,-0.6767,-0.6767,-0.6767,-0.6767,-0.6349,-0.637,-0.6403,-0.6436,-0.646,-0.6487,-0.6509,-0.6532,-0.6562,-0.66,-0.6613,-0.6648,-0.668,-0.6729,-0.6749,-0.6776,-0.6777,-0.6784,-0.6786,-0.6788,-0.6787,-0.6752,-0.6783,-0.6783,-0.6783,-0.6783,-0.6783,0,-0.6372,-0.6395,-0.6425,-0.6464,-0.649,-0.6499,-0.6531,-0.6551,-0.6582,-0.6611,-0.6639,-0.6678,-0.6711,-0.674,-0.6774,-0.6791,-0.6797,-0.6799,-0.6798,-0.6802,-0.6785,-0.6777,-0.6793,-0.6793,-0.6793,-0.6793,-0.6793,-0.6793,-0.6388,-0.6423,-0.6439,-0.6486,-0.6508,-0.6543,-0.6561,-0.6585,-0.6608,-0.6651,-0.6678,-0.6697,-0.6727,-0.6763,-0.6793,-0.6801,-0.6812,-0.6813,-0.6822,-0.6805,-0.6804,-0.6802,-0.6795,-0.6815,-0.6815,-0.6838,-0.6838,-0.6838]},{"header":{"parameterUnit":"m.s-1","parameterCategory":1,"la1":30.2991,"la2":30.254,"lo1":-89.0895,"lo2":-89.0444,"dy":0.0017,"dx":0.0017,"nx":28,"ny":28,"refTime":"2024-02-05T09:00:00:Z","depth":0,"parameterNumber":3,"parameterNumberName":"V-component_of_WINDS"},"data":[0,0,0,0,0,0,0,0,0,0,0,0,0,0,0,0,0,0,0,0,0,0,0,0,0,0,0,0,0,0,0,0,0,0,0,0,0,0,0,0,0,0,0,0,0,0,0,0,0,0,0,0,0,0,0,0,0,0,-8.3444,-8.3445,0,-8.3497,-8.3498,-8.3498,-8.339,-8.3386,-8.3383,-8.338,-8.3426,-8.3431,-8.3435,0,0,0,0,0,0,0,0,0,0,0,0,0,-8.3245,-8.3249,-8.3444,-8.3445,-8.3446,-8.3497,-8.3498,-8.3498,-8.3391,-8.3386,-8.3382,-8.3378,-8.3425,-8.343,-8.3436,0,0,0,0,0,0,0,0,0,0,0,0,0,-8.3318,-8.325,-8.3444,-8.3398,-8.3395,-8.3497,-8.3498,-8.3499,-8.3391,-8.3386,-8.3381,-8.3376,-8.3423,-8.343,-8.3436,-8.3583,0,0,-8.3457,-8.346,0,0,0,0,0,0,0,0,-8.3314,-8.3325,-8.3404,-8.3402,-8.3398,-8.3432,-8.3444,-8.3527,-8.3393,-8.3393,-8.338,-8.3373,-8.3432,-8.3438,-8.3459,-8.3586,-8.3588,-8.3458,-8.3462,-8.3465,-8.3467,0,0,0,0,0,0,0,-8.3309,-8.3322,-8.3465,-8.3406,-8.3402,-8.3373,-8.3378,-8.3459,-8.3441,-8.3392,-8.3384,-8.3393,-8.3429,-8.3453,-8.3459,-8.3588,-8.3458,-8.3464,-8.3468,-8.347,-8.384,-8.3846,0,0,0,0,0,0,-8.3311,-8.3319,-8.3463,-8.3466,-8.3342,-8.3381,-8.3386,-8.3426,-8.344,-8.3437,-8.3397,-8.3387,-8.3444,-8.3451,-8.346,-8.3635,-8.3465,-8.3471,-8.3475,-8.3835,-8.3841,-8.3848,0,0,0,0,0,0,-8.3307,-8.3324,-8.3461,-8.3391,-8.3406,-8.339,-8.3436,-8.343,-8.3453,-8.3444,-8.3439,-8.3425,-8.344,-8.3451,-8.3555,-8.3635,-8.3474,-8.348,-8.3828,-8.3837,-8.3845,-8.3985,0,0,0,0,0,0,-8.3301,-8.3324,-8.3381,-8.3393,-8.341,-8.3557,-8.3441,-8.3435,-8.3466,-8.3454,-8.3468,-8.3466,-8.3437,-8.3545,-8.3561,-8.3641,-8.3486,-8.382,-8.3832,-8.3842,-8.3973,-8.3997,-8.4018,0,0,0,0,0,-8.3295,-8.3416,-8.3384,-8.3402,-8.3481,-8.3561,-8.3571,-8.3537,-8.3473,-8.3529,-8.3523,-8.3465,-8.3624,-8.3557,-8.3574,-8.3657,-8.3815,-8.3829,-8.3841,-8.3963,-8.3992,-8.4017,0,0,0,0,0,0,-8.3409,-8.3416,-8.3381,-8.351,-8.3537,-8.3543,-8.3613,-8.3569,-8.3612,-8.3598,-8.3552,-8.3556,-8.3669,-8.3673,-8.3599,-8.3801,-8.3708,-8.3725,-8.3795,-8.3823,-8.3845,-8.3842,-8.3491,0,0,0,0,0,-8.3451,-8.3518,-8.3518,-8.3632,-8.3648,-8.3629,-8.3662,-8.3634,-8.3658,-8.3668,-8.3669,-8.3693,-8.3748,-8.3786,-8.3836,-8.3973,-8.3975,-8.4039,-8.4061,-8.408,-8.4095,-8.4169,-8.4198,-8.389,-8.389,-8.389,0,0,-8.3535,-8.3547,-8.3591,-8.3656,-8.3673,-8.3742,-8.3638,-8.3714,-8.3765,-8.3678,-8.3778,-8.378,-8.3804,-8.3926,-8.3979,-8.3932,-8.4181,-8.4096,-8.4111,-8.4116,-8.4186,-8.4215,-8.4241,-8.3899,-8.3898,-8.3896,0,0,-8.3723,-8.3739,-8.3837,-8.3857,-8.3886,-8.3873,-8.3897,-8.3911,-8.391,-8.4009,-8.3947,-8.4005,-8.41,-8.4121,-8.4143,-8.4344,-8.4292,-8.4361,-8.4478,-8.4552,-8.4576,-8.4597,-8.467,-8.4696,-8.4376,-8.4377,-8.4377,0,-8.3824,-8.3927,-8.3892,-8.3974,-8.4005,-8.3934,-8.4032,-8.4052,-8.4094,-8.4116,-8.4064,-8.4185,-8.4195,-8.4322,-8.4371,-8.4392,-8.4417,-8.4359,-8.4576,-8.4597,-8.4616,-8.4685,-8.4712,-8.4385,-8.4384,-8.4383,-8.4382,0,-8.405,-8.4123,-8.4198,-8.4245,-8.4283,-8.4373,-8.435,-8.4393,-8.4363,-8.4355,-8.4458,-8.4469,-8.4521,-8.4549,-8.4518,-8.4672,-8.4642,-8.4584,-8.4489,-8.4654,-8.4718,-8.4744,-8.4397,-8.4394,-8.4391,-8.4389,0,0,-8.431,-8.434,-8.4368,-8.439,-8.4417,-8.4472,-8.4558,-8.4612,-8.4651,-8.4683,-8.4754,-8.4838,-8.4786,-8.4812,-8.4782,-8.4847,-8.5007,-8.478,-8.478,-8.4823,-8.5178,-8.5223,-8.5254,-8.4973,-8.4978,-8.4981,-8.5177,0,-8.4499,-8.4651,-8.4624,-8.4771,-8.4838,-8.4773,-8.4848,-8.4873,-8.4868,-8.4923,-8.4916,-8.4978,-8.4903,-8.4919,-8.4979,-8.4975,-8.5077,-8.496,-8.5038,-8.5041,-8.5035,-8.5287,-8.5334,-8.5517,-8.5201,-8.5205,-8.5208,0,-8.4739,-8.4784,-8.494,-8.496,-8.4987,-8.5056,-8.5104,-8.5158,-8.5184,-8.5176,-8.5208,-8.5167,-8.5252,-8.5158,-8.5274,-8.5195,-8.5225,-8.5228,-8.5234,-8.524,-8.5135,-8.53,-8.5574,-8.5603,-8.5247,-8.5244,-8.5241,0,-8.4915,-8.5015,-8.5122,-8.5142,-8.5167,-8.5217,-8.5229,-8.5251,-8.5286,-8.5328,-8.535,-8.54,-8.5428,-8.5467,-8.5441,-8.5374,-8.5562,-8.5465,-8.5558,-8.5559,-8.56,-8.5598,-8.5884,-8.5619,-8.5618,-8.5618,-8.5617,0,-8.5129,-8.5227,-8.5202,-8.5268,-8.5376,-8.5342,-8.5449,-8.5453,-8.5474,-8.5538,-8.5483,-8.5544,-8.5505,-8.5563,-8.5543,-8.5643,-8.5655,-8.5651,-8.5645,-8.5657,-8.5658,-8.5676,-8.5663,-8.5625,-8.5624,-8.5622,-8.5621,0,-8.5344,-8.5331,-8.5444,-8.546,-8.5466,-8.5546,-8.5558,-8.5619,-8.5611,-8.5694,-8.5711,-8.5699,-8.5764,-8.5742,-8.5811,-8.5797,-8.5926,-8.5902,-8.5918,-8.5913,-8.6007,-8.5999,-8.6315,-8.6356,-8.6064,-8.6067,-8.6069,0,-8.5482,-8.5556,-8.5582,-8.5623,-8.5641,-8.5707,-8.5744,-8.5713,-8.5754,-8.5791,-8.5848,-8.5909,-8.5956,-8.6064,-8.606,-8.6113,-8.609,-8.6198,-8.6098,-8.6108,-8.6093,-8.609,-8.6097,-8.6218,-8.6221,-8.6224,-8.6226,0,-8.5728,-8.5719,-8.5776,-8.5832,-8.5879,-8.592,-8.5956,-8.5992,-8.5964,-8.6012,-8.608,-8.6118,-8.619,-8.6252,-8.63,-8.631,-8.6264,-8.6258,-8.6282,-8.6295,-8.6302,-8.6301,-8.5974,-8.625,-8.6248,-8.6246,-8.6245,-8.6244,-8.5909,-8.5973,-8.6003,-8.6069,-8.6094,-8.613,-8.6189,-8.619,-8.6248,-8.6307,-8.6285,-8.6363,-8.6389,-8.645,-8.6467,-8.6527,-8.6485,-8.652,-8.6529,-8.6539,-8.6552,-8.6293,-8.6535,-8.6534,-8.6534,-8.6533,-8.6533,0,-8.6153,-8.617,-8.6231,-8.6286,-8.6338,-8.6293,-8.6331,-8.6377,-8.6448,-8.6477,-8.6527,-8.6605,-8.6666,-8.6668,-8.6724,-8.6771,-8.6752,-8.6787,-8.6783,-8.6787,-8.6585,-8.6559,-8.6802,-8.6802,-8.6802,-8.6802,-8.6802,-8.6802,-8.6286,-8.6394,-8.6389,-8.6508,-8.6523,-8.6602,-8.6628,-8.6661,-8.6685,-8.6777,-8.6828,-8.683,-8.6848,-8.6906,-8.6959,-8.6958,-8.6981,-8.7025,-8.7016,-8.6828,-8.6801,-8.6775,-8.6751,-8.703,-8.7031,-8.7213,-8.7215,-8.7216]}]]